Location: Casone le Fosse
(44.6547°N, 12.1103°E)
Time: 11:58:19
(UTC+00:00)

Lacrosse 5 - Pass Details

Date: 29 October 2020
Orbit: 716 x 723 km, 57.0° (Epoch: 06 November)

Event Time Altitude Azimuth Distance (km) Brightness Sun altitude
Rises 18:13:27 0° 309° (NW) 3,125 6.0 -23.5°
Reaches altitude 10° 18:16:12 10° 322° (NW) 2,203 4.9 -24.0°
Enters shadow 18:20:12 26° 14° (NNE) 1,398 3.2 -24.7°
